Lid_Strength_Index
4 4 4 4 5 6 6 8 9 4 6 10 11 11 10 7 7 6 8 8 9 10 9 10 10 10 9 8 9 11 9 13 14 12 8 7 9 12 12 16 18 16 17 17
4 4 4 5 5 5 7 10 9 4 6 12 12 10 9 8 8 7 8 8 8 9 11 12 10 8 7 7 8 11 9 13 15 13 11 9 11 11 13 12 13 17 18 16
3 4 4 5 5 5 7 9 10 7 8 10 10 12 11 10 7 7 8 8 9 10 11 11 10 8 7 7 7 4 7 13 13 15 14 12 12 11 11 13 16 16 16 15
3 3 4 5 5 5 7 8 9 7 10 8 9 9 9 9 10 7 8 9 8 10 12 11 10 9 9 7 5 8 10 13 12 12 11 11 11 11 11 13 13 15 14 14
2 3 4 4 5 5 7 8 8 6 7 8 8 9 10 9 8 9 9 10 8 9 11 10 12 10 12 10 9 9 10 13 12 13 11 11 12 11 11 11 11 12 12 13
2 3 3 4 5 6 8 7 5 6 8 9 10 10 10 8 7 6 6 8 9 10 9 8 8 9 10 10 11 11 10 12 13 16 12 12 14 12 12 11 11 11 14 12
2 2 3 3 4 5 7 7 7 7 10 8 8 8 8 8 8 8 6 7 9 7 7 7 9 9 10 10 10 11 11 12 13 16 15 18 11 9 9 11 10 9 10 10
2 3 3 3 3 4 7 7 7 7 10 8 8 8 8 8 7 7 7 6 6 7 8 11 12 12 11 10 9 9 11 12 15 16 17 13 11 10 10 11 12 9 10 9
2 3 3 3 3 4 6 6 6 6 8 9 6 8 7 10 10 8 7 6 8 8 10 11 14 14 12 12 11 9 9 10 12 14 17 18 12 8 7 7 14 8 8 9
3 3 3 3 4 4 5 6 6 7 8 6 6 8 8 8 9 10 8 7 8 9 12 13 13 13 9 13 13 13 12 13 14 15 16 14 9 7 6 14 13 8 7 8
4 4 3 3 3 3 5 6 5 6 6 5 4 5 6 7 8 11 9 8 8 11 12 12 12 12 11 11 11 12 13 14 15 14 17 17 7 8 11 9 8 7 7 7
4 4 4 3 4 4 4 6 5 4 7 6 4 3 4 4 6 8 9 8 8 9 11 10 10 11 11 12 14 10 12 11 13 12 13 8 6 8 6 6 7 7 7 6
4 4 3 3 3 4 4 6 6 5 7 7 7 6 4 3 5 5 9 8 7 8 7 9 10 11 10 12 12 11 9 8 10 11 9 8 7 6 5 5 6 5 5 5
4 4 3 3 3 3 4 6 5 6 7 9 8 4 5 4 4 5 5 6 6 6 7 9 10 11 9 11 10 10 9 8 11 11 9 7 7 6 5 5 5 5 4 4
4 4 3 3 3 4 5 6 6 5 7 10 9 7 5 5 5 6 5 6 6 8 7 9 10 9 9 10 10 12 8 9 10 11 8 8 7 5 5 5 5 6 5 5
4 4 3 3 4 4 7 7 4 5 5 8 11 7 6 5 5 5 6 6 7 7 8 8 8 7 8 11 11 8 8 7 7 7 6 6 5 4 4 5 4 5 4 4
4 3 3 3 4 6 8 8 6 6 6 8 9 9 5 5 6 6 6 7 7 7 8 8 7 8 8 10 11 7 7 7 6 5 5 7 6 6 5 4 4 4 4 3
4 3 3 4 4 5 7 6 6 6 7 7 9 10 8 6 8 7 6 7 8 8 8 8 8 7 9 11 8 7 6 5 6 6 6 6 6 6 5 4 4 5 5 4
4 4 4 6 6 8 6 1 4 5 7 9 8 11 12 5 6 7 7 6 9 7 9 9 7 9 11 8 8 7 6 7 6 6 6 5 6 6 5 5 5 5 5 4
4 6 6 8 6 1 2 5 7 7 8 8 10 8 10 7 7 8 8 7 9 11 9 8 10 10 7 6 6 6 6 6 5 6 7 7 7 6 5 5 6 4 4 4
7 7 6 4 2 5 6 8 8 9 10 8 8 8 9 7 9 9 7 9 9 12 10 10 11 11 8 6 5 5 5 5 5 5 5 5 6 5 5 5 4 4 4 4
6 6 5 4 7 8 9 10 8 10 11 8 9 8 8 7 5 9 8 10 9 12 8 10 13 9 7 6 5 5 4 4 4 4 4 4 4 4 4 4 4 4 3 3
5 6 7 8 8 13 12 13 11 11 8 7 7 9 8 6 6 8 9 11 12 8 11 13 10 8 6 6 5 5 4 4 4 4 4 3 4 4 4 4 4 4 3 3
8 8 13 10 11 10 10 9 9 7 7 7 7 8 8 8 9 9 11 10 10 13 15 13 10 8 7 6 5 5 5 5 4 4 4 4 4 4 3 3 4 3 4 3
8 8 13 10 8 7 7 6 7 6 6 6 8 8 8 9 10 9 10 12 13 13 13 10 8 7 6 6 5 5 5 5 5 5 4 4 4 4 4 4 3 3 3 3
8 8 9 7 8 8 7 7 7 5 6 6 7 9 10 10 10 11 12 13 14 11 9 7 7 7 6 6 5 5 5 5 5 5 5 5 4 4 4 4 3 3 3 3
7 8 7 7 7 8 7 6 6 4 6 9 9 11 11 9 12 12 10 12 10 8 8 6 6 7 6 6 5 5 4 4 5 5 5 5 4 4 4 4 4 3 3 3